Regional Weather Roundup
Issued by NWS

Home | Current Version | Previous Version | Graphics & Text | Print | Product List | Glossary On
Versions: 1 2 3 4 5 6 7 8 9 10 11 12 13 14 15 16 17 18 19 20 21 22 23 24 25 26 27 28 29 30 31 32 33 34 35 36 37 38 39 40 41 42 43 44 45 46 47 48 49 50
000
ASUS43 KMKX 220600
RWRWI

WISCONSIN REGIONAL WEATHER ROUNDUP
NATIONAL WEATHER SERVICE MILWAUKEE/SULLIVAN WI
100 AM CDT FRI SEP 22 2017

NOTE: "FAIR" INDICATES FEW OR NO CLOUDS BELOW 12,000 FEET WITH NO
SIGNIFICANT WEATHER AND/OR OBSTRUCTIONS TO VISIBILITY.

WIZ001-002-006>008-014>016-023>028-220700-
NORTHWEST WISCONSIN

CITY           SKY/WX    TMP DP  RH WIND       PRES   REMARKS
SUPERIOR ARPT  CLEAR     59  57  93 NE8       29.88F
ASHLAND        CLEAR     56  55  97 W5        29.90S
6HR MIN TEMP:  55; 6HR MAX TEMP:  61;

HAYWARD        CLEAR     71  64  78 S8        29.91F
6HR MIN TEMP:  71; 6HR MAX TEMP:  73;

SIREN          PTCLDY    73  64  74 SE9       29.86F
CUMBERLAND     PTCLDY    68  63  83 SE6       29.91S
RICE LAKE      PTCLDY    70  64  81 SE9       29.92S
CHETEK         PTCLDY    70  65  85 CALM      29.92S
LADYSMITH      CLEAR     72  64  76 S8        29.96S
EAU CLAIRE     NOT AVBL
MENOMONIE      CLEAR     71  65  80 SE7       29.91R
NEW RICHMOND   PTCLDY    74  64  71 S10       29.87S
OSCEOLA        CLEAR     73  65  74 SE9       29.87F
$$

WIZ003>005-009-010-017-018-220700-
NORTH CENTRAL WISCONSIN

CITY           SKY/WX    TMP DP  RH WIND       PRES   REMARKS
MANITOWISH WTR CLEAR     66  66 100 SE5       29.98S
ARBOR VITAE    CLEAR     67  65  93 SE3       29.99S
WOODRUFF       CLEAR     67  65  93 SE3       29.99S
RHINELANDER    CLEAR     68  66  93 SE3       30.01R
6HR MIN TEMP:  65; 6HR MAX TEMP:  70;

EAGLE RIVER    CLEAR     66  66 100 SE3       30.01R FOG
LAND O LAKES   CLEAR     68  65  91 S5        30.02S
PHILLIPS       CLEAR     69  66  88 S8        29.96S
TOMAHAWK       CLEAR     67  64  89 CALM      30.00S
MEDFORD        CLEAR     65  63  91 SE5       29.98S
MERRILL        CLEAR     67  66  96 CALM      30.00R
$$

WIZ029-030-035-036-043>047-220700-
CENTRAL WISCONSIN

CITY           SKY/WX    TMP DP  RH WIND       PRES   REMARKS
WAUSAU         PTCLDY    66  64  93 E5        29.98R
6HR MIN TEMP:  66; 6HR MAX TEMP:  74;

MOSINEE        CLEAR     68  64  88 SE7       30.00S
MARSHFIELD     CLEAR     67  63  87 S7        29.98R
6HR MIN TEMP:  67; 6HR MAX TEMP:  75;

STEVENS POINT  CLEAR     68  66  94 SE5       29.99S
WAUPACA        CLEAR     67  67  97 CALM      30.00S
WAUTOMA        CLEAR     65  64  97 CALM      30.00
6HR MIN TEMP:  65; 6HR MAX TEMP:  75;

WISC RAPIDS    CLEAR     73  66  78 S6        29.99R
6HR MIN TEMP:  70; 6HR MAX TEMP:  75;

CAMP DOUGLAS   NOT AVBL
$$

WIZ011>013-019>022-031-037>040-048>050-220700-
NORTHEAST WISCONSIN

CITY           SKY/WX    TMP DP  RH WIND       PRES   REMARKS
ANTIGO         CLEAR     66  66 100 S5        30.02S FOG
SHAWANO          N/A     68  66  92 CALM      30.00S FOG
OCONTO         MOCLDY    62  62  99 CALM      30.00S VSB 1
STURGEON BAY   PTCLDY    67  66  97 S8        30.03S
6HR MIN TEMP:  64; 6HR MAX TEMP:  67;

GREEN BAY      CLEAR     65  65 100 CALM      30.00S
6HR MIN TEMP:  65; 6HR MAX TEMP:  71;

MANITOWOC      CLEAR     65  65 100 CALM      30.02S FOG
6HR MIN TEMP:  63; 6HR MAX TEMP:  66;

APPLETON       CLEAR     68  64  88 SE6       29.99S
CLINTONVILLE   CLEAR     66  64  94 CALM      30.00S FOG
OSHKOSH        CLEAR     68  66  93 S6        29.99S
6HR MIN TEMP:  68; 6HR MAX TEMP:  78;

$$

WIZ032>034-041-042-053>061-220700-
SOUTHWEST WISCONSIN

CITY           SKY/WX    TMP DP  RH WIND       PRES   REMARKS
LA CROSSE      NOT AVBL
SPARTA         CLEAR     75  66  74 S7        29.95R
VIROQUA        CLEAR     71  68  90 CALM      29.97S
BOSCOBEL       CLEAR     68  66  93 CALM      29.97R
6HR MIN TEMP:  68; 6HR MAX TEMP:  84;

PRAIRIE DU CHI CLEAR     78  66  66 SE7       29.94S HX  80
PLATTEVILLE    CLEAR     73  70  92 SE7       30.00R
$$

WIZ056-057-062-063-064-067-068-220700-
SOUTH CENTRAL WISCONSIN

CITY           SKY/WX    TMP DP  RH WIND       PRES   REMARKS
REEDSBURG      CLEAR     72  67  84 SE3       29.97F
BARABOO/DELLS  CLEAR     73  64  72 S7        29.99S
LONE ROCK      NOT AVBL
MINERAL POINT  CLEAR     72  70  94 SE7       30.00S
MADISON        PTCLDY    73  66  78 S6        30.00R
6HR MIN TEMP:  73; 6HR MAX TEMP:  82;

MIDDLETON      CLEAR     67  67 100 CALM      30.01S
WATERTOWN      CLEAR     70  70 100 CALM      30.01R
MONROE         CLEAR     72  64  78 S7        30.00S
JANESVILLE     CLEAR     72  70  94 SE6       30.00S
$$

WIZ051-052-058>065-066-070>072-220700-
SOUTHEAST WISCONSIN

CITY           SKY/WX    TMP DP  RH WIND       PRES   REMARKS
MILWAUKEE      PTCLDY    70  68  93 SE5       30.01S FOG
6HR MIN TEMP:  70; 6HR MAX TEMP:  76;

WAUKESHA       CLEAR     66  63  88 CALM      30.03S
MILWAUKEE/TIMM CLEAR     68  63  83 CALM      30.02S FOG
RACINE         CLEAR     73  71  93 S5        30.03S
6HR MIN TEMP:  71; 6HR MAX TEMP:  75;

BURLINGTON     CLEAR     66  66 100 CALM      30.02S FOG
KENOSHA        CLEAR     72  68  87 S5        30.02S
6HR MIN TEMP:  70; 6HR MAX TEMP:  76;

FOND DU LAC    CLEAR     70  65  84 S5        30.00S
6HR MIN TEMP:  68; 6HR MAX TEMP:  78;

SHEBOYGAN      FOG       64  64 100 CALM      30.02S VSB 1
6HR MIN TEMP:  62; 6HR MAX TEMP:  72;

WEST BEND        N/A     63  63 100 CALM      30.03R FOG
JUNEAU         CLEAR     69  66  89 SE7       30.02S
$$

LSZ147-162-220700-
LAKE SUPERIOR

STATION/POSITION TIME  TEMP    WIND        PRES    WAVE
                       AIR SEA DIR/SP/G            HT/PER
                 (UTC) (F)     (DEG/KT/KT) (MB)    (FT/S)
W MID LAKE BUOY  0450   59 55  110/  8/  8 1013.1F   2/ 4
DEVILS ISLAND    0500   60      70/  6/  6 1012.5F
SAXON HARBOR     0530   62      CALM  /  8 1011.5F
$$

LMZ867-665-643>646-220700-
LAKE MICHIGAN

STATION/POSITION TIME  TEMP    WIND        PRES    WAVE
                       AIR SEA DIR/SP/G            HT/PER
                 (UTC) (F)     (DEG/KT/KT) (MB)    (FT/S)
S GREEN BAY BUOY 0530   66 67  120/  2/  4 1015.8F
N MID LAKE BUOY  0450   67 66  160/  4/  4 1017.0S   1
NORTHPORT PIER   0540   67      CALM  /  3 1016.3S
KEWAUNEE LAKESHO 0530   63      CALM  /  2 1015.6R
SHEBOYGAN LAKESH 0500   68     170/  4/  5 1016.0F
PORT WASHINGTON  0540   71     160/  2/  3 1016.9F
ATWATER BUOY     0439   69 68  170/  2/  2 1016.5F
MILWAUKEE LAKESH 0540   70      50/  1/  1   N/A
S MID LAKE BUOY  0450   73 70  120/ 12/ 12 1016.5S   1/ 2
KENOSHA   LAKESH 0500   73     180/  6/  8 1015.9
$$

TC  - TEMPERATURE IN CELSIUS
VSB - VISIBILITY IN STATUTE MILES
WCI - WIND CHILL INDEX
HX  - HEAT INDEX





USA.gov is the U.S. government's official web portal to all federal, state and local government web resources and services.